• In Hungary
  • List of Countries
  • For 7 days
  • Water Temperature
  • Satellite Maps
  • Weather Map
  • News
  • Weather Widgets
  • user-avatar
    Login

    Hourly Weather Bindura

    Today, 13 November, Tuesday

    Time Temperature Precipitation Wind Pressure Humidity
    00:00 +19°C° 0 mm 1 mps 670 mmHg 45%
    01:00 +19°C° 0 mm 1 mps 670 mmHg 48%
    02:00 +18°C° 0 mm 1 mps 669 mmHg 52%
    03:00 +16°C° 0 mm 0 mps 669 mmHg 56%
    04:00 +15°C° 0 mm 0 mps 669 mmHg 60%
    05:00 +14°C° 0 mm 0 mps 669 mmHg 64%
    06:00 +19°C° 0 mm 1 mps 670 mmHg 56%
    07:00 +22°C° 0 mm 1 mps 671 mmHg 48%
    08:00 +24°C° 0 mm 1 mps 672 mmHg 40%
    09:00 +26°C° 0 mm 1 mps 672 mmHg 34%
    10:00 +29°C° 0 mm 2 mps 672 mmHg 27%
    11:00 +31°C° 0 mm 2 mps 672 mmHg 20%
    12:00 +32°C° 0 mm 2 mps 671 mmHg 18%
    13:00 +34°C° 0 mm 2 mps 671 mmHg 16%
    14:00 +34°C° 0 mm 2 mps 670 mmHg 14%
    15:00 +34°C° 0 mm 3 mps 669 mmHg 15%
    16:00 +33°C° 0 mm 3 mps 669 mmHg 15%
    17:00 +33°C° 0 mm 3 mps 668 mmHg 16%
    18:00 +29°C° 0 mm 3 mps 668 mmHg 20%
    19:00 +27°C° 0 mm 3 mps 668 mmHg 24%
    20:00 +25°C° 0 mm 3 mps 668 mmHg 28%
    21:00 +24°C° 0 mm 2 mps 669 mmHg 33%
    22:00 +23°C° 0 mm 2 mps 669 mmHg 37%
    23:00 +21°C° 0 mm 2 mps 669 mmHg 42%

    Tomorrow, 14 November, Wednesday

    Time Temperature Precipitation Wind Pressure Humidity
    00:00 +21°C° 0 mm 1 mps 669 mmHg 45%
    01:00 +20°C° 0 mm 1 mps 668 mmHg 49%
    02:00 +19°C° 0 mm 1 mps 668 mmHg 53%
    03:00 +19°C° 0 mm 1 mps 668 mmHg 56%
    04:00 +16°C° 0 mm 0 mps 668 mmHg 59%
    05:00 +15°C° 0 mm 0 mps 667 mmHg 63%
    06:00 +18°C° 0 mm 0 mps 668 mmHg 55%
    07:00 +23°C° 0 mm 1 mps 669 mmHg 46%
    08:00 +25°C° 0 mm 1 mps 670 mmHg 38%
    09:00 +28°C° 0 mm 1 mps 671 mmHg 31%
    10:00 +30°C° 0 mm 2 mps 671 mmHg 25%
    11:00 +32°C° 0 mm 2 mps 671 mmHg 18%
    12:00 +32°C° 0 mm 2 mps 670 mmHg 16%
    13:00 +34°C° 0 mm 2 mps 669 mmHg 14%
    14:00 +35°C° 0 mm 3 mps 669 mmHg 12%
    15:00 +34°C° 0 mm 3 mps 668 mmHg 13%
    16:00 +34°C° 0 mm 3 mps 668 mmHg 13%
    17:00 +33°C° 0 mm 3 mps 667 mmHg 14%
    18:00 +30°C° 0 mm 3 mps 667 mmHg 17%
    19:00 +28°C° 0 mm 3 mps 668 mmHg 20%
    20:00 +25°C° 0 mm 3 mps 668 mmHg 24%
    21:00 +24°C° 0 mm 3 mps 668 mmHg 30%
    22:00 +23°C° 0 mm 2 mps 669 mmHg 37%
    23:00 +21°C° 0 mm 2 mps 669 mmHg 43%

    Day after tomorrow, 15 November, Thursday

    Time Temperature Precipitation Wind Pressure Humidity
    00:00 +21°C° 0 mm 2 mps 668 mmHg 52%
    01:00 +20°C° 0 mm 2 mps 668 mmHg 60%
    02:00 +20°C° 0 mm 1 mps 668 mmHg 69%
    03:00 +19°C° 0 mm 1 mps 668 mmHg 73%
    04:00 +18°C° 0 mm 1 mps 668 mmHg 78%
    05:00 +16°C° 0 mm 0 mps 668 mmHg 82%
    06:00 +20°C° 0 mm 1 mps 669 mmHg 70%
    07:00 +23°C° 0 mm 1 mps 670 mmHg 57%
    08:00 +26°C° 0 mm 1 mps 671 mmHg 45%
    09:00 +28°C° 0 mm 2 mps 671 mmHg 36%
    10:00 +30°C° 0 mm 2 mps 671 mmHg 28%
    11:00 +32°C° 0 mm 2 mps 671 mmHg 19%
    12:00 +34°C° 0 mm 3 mps 670 mmHg 17%
    13:00 +35°C° 0 mm 3 mps 670 mmHg 15%
    14:00 +36°C° 0 mm 3 mps 669 mmHg 13%
    15:00 +35°C° 0 mm 3 mps 668 mmHg 14%
    16:00 +34°C° 0 mm 3 mps 668 mmHg 15%
    17:00 +34°C° 0 mm 4 mps 668 mmHg 16%
    18:00 +31°C° 0 mm 3 mps 668 mmHg 21%
    19:00 +29°C° 0 mm 3 mps 668 mmHg 25%
    20:00 +26°C° 0 mm 3 mps 669 mmHg 30%
    21:00 +26°C° 0 mm 3 mps 669 mmHg 33%
    22:00 +25°C° 0 mm 2 mps 669 mmHg 36%
    23:00 +24°C° 0 mm 2 mps 669 mmHg 40%

    16 November, Friday

    Time Temperature Precipitation Wind Pressure Humidity
    00:00 +23°C° 0 mm 2 mps 669 mmHg 45%
    01:00 +21°C° 0 mm 2 mps 668 mmHg 50%
    02:00 +21°C° 0 mm 1 mps 668 mmHg 55%
    03:00 +21°C° 0 mm 1 mps 668 mmHg 59%
    04:00 +20°C° 0 mm 1 mps 668 mmHg 64%
    05:00 +19°C° 0 mm 1 mps 668 mmHg 68%
    06:00 +22°C° 0 mm 1 mps 669 mmHg 60%
    07:00 +24°C° 0 mm 2 mps 670 mmHg 53%
    08:00 +27°C° 0 mm 3 mps 671 mmHg 46%
    09:00 +29°C° 0 mm 2 mps 672 mmHg 39%
    10:00 +31°C° 0 mm 2 mps 672 mmHg 32%
    11:00 +34°C° 0 mm 2 mps 672 mmHg 25%
    12:00 +35°C° 0 mm 2 mps 671 mmHg 23%
    13:00 +36°C° 0 mm 2 mps 670 mmHg 20%
    14:00 +37°C° 0 mm 2 mps 669 mmHg 17%
    15:00 +36°C° 0 mm 3 mps 669 mmHg 18%
    16:00 +36°C° 0 mm 3 mps 669 mmHg 19%
    17:00 +35°C° 0 mm 3 mps 668 mmHg 19%
    18:00 +33°C° 0 mm 3 mps 669 mmHg 23%
    19:00 +30°C° 0 mm 2 mps 669 mmHg 27%
    20:00 +28°C° 0 mm 2 mps 669 mmHg 32%
    21:00 +27°C° 0 mm 2 mps 669 mmHg 34%
    22:00 +27°C° 0 mm 2 mps 670 mmHg 37%
    23:00 +26°C° 0 mm 2 mps 670 mmHg 39%

    17 November, Saturday

    Time Temperature Precipitation Wind Pressure Humidity
    00:00 +25°C° 0 mm 2 mps 669 mmHg 44%
    01:00 +24°C° 0 mm 2 mps 669 mmHg 50%
    02:00 +23°C° 0 mm 2 mps 668 mmHg 55%
    03:00 +23°C° 0 mm 2 mps 669 mmHg 61%
    04:00 +22°C° 0 mm 1 mps 669 mmHg 66%
    05:00 +21°C° 0 mm 1 mps 669 mmHg 71%
    06:00 +23°C° 0 mm 2 mps 670 mmHg 64%
    07:00 +25°C° 0 mm 2 mps 670 mmHg 57%
    08:00 +27°C° 0 mm 3 mps 671 mmHg 50%
    09:00 +30°C° 0 mm 3 mps 671 mmHg 42%
    10:00 +33°C° 0 mm 3 mps 671 mmHg 35%
    11:00 +35°C° 0 mm 2 mps 671 mmHg 27%
    12:00 +35°C° 0 mm 2 mps 670 mmHg 26%
    13:00 +36°C° 0 mm 2 mps 670 mmHg 25%
    14:00 +36°C° 0 mm 2 mps 669 mmHg 23%
    15:00 +35°C° 0 mm 3 mps 668 mmHg 24%
    16:00 +35°C° 0 mm 3 mps 668 mmHg 25%
    17:00 +35°C° 0 mm 3 mps 668 mmHg 25%
    18:00 +33°C° 0 mm 3 mps 668 mmHg 30%
    19:00 +30°C° 0 mm 2 mps 668 mmHg 34%
    20:00 +28°C° 0 mm 1 mps 668 mmHg 38%
    21:00 +27°C° 0 mm 2 mps 669 mmHg 41%
    22:00 +26°C° 0 mm 2 mps 669 mmHg 43%
    23:00 +26°C° 0 mm 2 mps 669 mmHg 46%

    18 November, Sunday

    Time Temperature Precipitation Wind Pressure Humidity
    00:00 +25°C° 0 mm 2 mps 669 mmHg 50%
    01:00 +24°C° 0 mm 2 mps 668 mmHg 55%
    02:00 +24°C° 0 mm 2 mps 668 mmHg 59%
    03:00 +23°C° 0 mm 2 mps 668 mmHg 63%
    04:00 +21°C° 0 mm 2 mps 668 mmHg 67%
    05:00 +22°C° 0 mm 1 mps 668 mmHg 70%
    06:00 +24°C° 0 mm 2 mps 669 mmHg 63%
    07:00 +26°C° 0 mm 3 mps 670 mmHg 56%
    08:00 +28°C° 0 mm 3 mps 671 mmHg 49%
    09:00 +30°C° 0 mm 3 mps 671 mmHg 44%
    10:00 +31°C° 0 mm 3 mps 671 mmHg 38%
    11:00 +33°C° 0 mm 3 mps 671 mmHg 33%
    12:00 +34°C° 0 mm 3 mps 670 mmHg 31%
    13:00 +34°C° 0 mm 3 mps 670 mmHg 30%
    14:00 +34°C° 0 mm 4 mps 669 mmHg 28%
    15:00 +34°C° 0 mm 4 mps 669 mmHg 29%
    16:00 +33°C° 0 mm 4 mps 669 mmHg 30%
    17:00 +33°C° 0 mm 4 mps 668 mmHg 31%
    18:00 +30°C° 0 mm 4 mps 669 mmHg 36%
    19:00 +28°C° 0 mm 3 mps 669 mmHg 40%
    20:00 +27°C° 0 mm 3 mps 669 mmHg 45%
    21:00 +26°C° 0 mm 3 mps 669 mmHg 48%
    22:00 +25°C° 0 mm 3 mps 669 mmHg 52%
    23:00 +25°C° 0 mm 3 mps 669 mmHg 55%
    Show more